Weather History for Fort Meade, MD

Change the Weather History Date:

Wednesday, August 28, 2013

  Actual Average (KBWI) Record (KBWI)
Temperature  
Mean Temperature 74 °F 74 °F  
Max Temperature 80 °F 84 °F 101 °F (1948)
Min Temperature 68 °F 64 °F 48 °F (1986)
Degree Days  
Heating Degree Days 0 0  
Month to date heating degree days 0  
Since 1 June heating degree days 15  
Since 1 July heating degree days 0  
Cooling Degree Days 9 9  
Month to date cooling degree days 291  
Year to date cooling degree days 985  
Since 1 June cooling degree days 901  
Growing Degree Days 24 (Base 50)    
Moisture  
Dew Point 69 °F    
Average Humidity 90    
Maximum Humidity 94    
Minimum Humidity 70    
Precipitation  
Precipitation 0.00 in 0.09 in 2.60 in (1989)
Month to date precipitation 2.99  
Year to date precipitation 27.55  
Snow  
Snow 0.00 in 0.00 in - ()
Month to date snowfall 0.0  
Since 1 July snowfall 0.0  
Snow Depth -    
Sea Level Pressure  
Sea Level Pressure 29.90 in    
Wind  
Wind Speed 1 mph (WSW)    
Max Wind Speed 9 mph    
Max Gust Speed -    
Visibility 4 miles    
Events      
T = Trace of Precipitation, MM = Missing Value Source: NWS Daily Summary

Daily Weather History Graph

Daily Weather History Graph

Search for Another Location

Airport:

Trip Planner

Search our weather history database for the weather conditions in past years. The results will help you decide how hot, cold, wet, or windy it might be!

Date:

Astronomy

Aug. 28, 2013 Rise Set
Actual Time 6:32 AM EDT 7:43 PM EDT
Civil Twilight 6:04 AM EDT 8:10 PM EDT
Nautical Twilight 5:31 AM EDT 8:43 PM EDT
Astronomical Twilight 4:57 AM EDT 9:18 PM EDT
Moon No Moon Rise 2:17 PM EDT (8/28)
Length of Visible Light 14h 06m
Length of Day
13h 10m
Waning Gibbous, 47% of the Moon is Illuminated
Aug 28
Waning Gibbous
Sep 5
New
Sep 12
First Quarter
Sep 19
Full
Sep 26
Last Quarter

Hourly Weather History & Observations

Time (EDT) Temp. Heat Index Dew Point Humidity Pressure Visibility Wind Dir Wind Speed Gust Speed Precip Events Conditions
12:06 AM 71.6 °F - 68.0 °F 88% 29.94 in 3.0 mi Calm Calm - N/A   Clear
12:27 AM 71.6 °F - 68.0 °F 88% 29.94 in 3.0 mi Calm Calm - N/A   Scattered Clouds
12:45 AM 69.8 °F - 68.0 °F 94% 29.94 in 3.0 mi Calm Calm - N/A   Mostly Cloudy
1:06 AM 69.8 °F - 68.0 °F 94% 29.93 in 2.5 mi Calm Calm - N/A   Scattered Clouds
1:27 AM 69.8 °F - 68.0 °F 94% 29.93 in 2.5 mi Calm Calm - N/A   Clear
1:45 AM 69.8 °F - 68.0 °F 94% 29.93 in 3.0 mi Calm Calm - N/A   Clear
2:06 AM 69.8 °F - 68.0 °F 94% 29.92 in 2.5 mi Calm Calm - N/A   Clear
2:27 AM 69.8 °F - 68.0 °F 94% 29.91 in 3.0 mi Calm Calm - N/A   Clear
2:45 AM 69.8 °F - 68.0 °F 94% 29.90 in 3.0 mi Calm Calm - N/A   Clear
3:06 AM 69.8 °F - 68.0 °F 94% 29.90 in 3.0 mi Calm Calm - N/A   Clear
3:27 AM 69.8 °F - 68.0 °F 94% 29.90 in 2.5 mi Calm Calm - N/A   Scattered Clouds
3:48 AM 69.8 °F - 68.0 °F 94% 29.90 in 2.5 mi Calm Calm - N/A   Mostly Cloudy
4:06 AM 69.8 °F - 68.0 °F 94% 29.90 in 2.5 mi Calm Calm - N/A   Scattered Clouds
4:27 AM 69.8 °F - 68.0 °F 94% 29.90 in 2.0 mi Calm Calm - N/A   Clear
4:48 AM 68.0 °F - 66.2 °F 94% 29.89 in 2.0 mi Calm Calm - N/A   Clear
5:06 AM 68.0 °F - 66.2 °F 94% 29.90 in 2.0 mi Calm Calm - N/A   Clear
5:27 AM 68.0 °F - 66.2 °F 94% 29.89 in 2.5 mi Calm Calm - N/A   Scattered Clouds
5:48 AM 68.0 °F - 66.2 °F 94% 29.90 in 2.5 mi Calm Calm - N/A   Scattered Clouds
6:06 AM 68.0 °F - 66.2 °F 94% 29.90 in 2.5 mi Calm Calm - N/A   Clear
6:27 AM 68.0 °F - 66.2 °F 94% 29.90 in 2.5 mi Calm Calm - N/A   Scattered Clouds
6:48 AM 69.8 °F - 68.0 °F 94% 29.91 in 2.0 mi Calm Calm - N/A   Clear
7:06 AM 69.8 °F - 68.0 °F 94% 29.92 in 2.5 mi Calm Calm - N/A   Scattered Clouds
7:27 AM 69.8 °F - 68.0 °F 94% 29.92 in 3.0 mi Calm Calm - N/A   Mostly Cloudy
7:48 AM 69.8 °F - 68.0 °F 94% 29.92 in 3.0 mi Calm Calm - N/A   Overcast
8:06 AM 69.8 °F - 68.0 °F 94% 29.93 in 4.0 mi Calm Calm - N/A   Scattered Clouds
8:27 AM 71.6 °F - 68.0 °F 88% 29.93 in 4.0 mi Calm Calm - N/A   Mostly Cloudy
8:48 AM 71.6 °F - 69.8 °F 94% 29.93 in 4.0 mi Calm Calm - N/A   Mostly Cloudy
9:06 AM 71.6 °F - 69.8 °F 94% 29.93 in 3.0 mi Calm Calm - N/A   Overcast
9:27 AM 71.6 °F - 69.8 °F 94% 29.93 in 3.0 mi WSW 3.5 mph - N/A   Scattered Clouds
9:48 AM 73.4 °F - 69.8 °F 88% 29.93 in 2.0 mi Calm Calm - N/A   Mostly Cloudy
10:06 AM 73.4 °F - 71.6 °F 94% 29.94 in 2.0 mi Calm Calm - N/A   Overcast
10:27 AM 73.4 °F - 71.6 °F 94% 29.94 in 2.5 mi West 3.5 mph - N/A   Mostly Cloudy
10:45 AM 75.2 °F - 71.6 °F 89% 29.94 in 1.2 mi WSW 4.6 mph - N/A   Overcast
11:06 AM 77.0 °F - 73.4 °F 89% 29.93 in 2.0 mi WSW 4.6 mph - N/A   Overcast
11:27 AM 78.8 °F - 71.6 °F 78% 29.93 in 7.0 mi West 8.1 mph - N/A   Mostly Cloudy
11:48 AM 78.8 °F - 71.6 °F 78% 29.92 in 10.0 mi WSW 5.8 mph - N/A   Mostly Cloudy
12:09 PM 80.6 °F 83.9 °F 69.8 °F 70% 29.90 in 10.0 mi WSW 8.1 mph - N/A   Scattered Clouds
12:27 PM 78.8 °F - 69.8 °F 74% 29.90 in 10.0 mi SW 6.9 mph - N/A   Clear
12:48 PM 78.8 °F - 69.8 °F 74% 29.90 in 10.0 mi WSW 6.9 mph - N/A   Scattered Clouds
1:09 PM 77.0 °F - 69.8 °F 78% 29.90 in 7.0 mi West 6.9 mph - N/A   Scattered Clouds
1:27 PM 77.0 °F - 71.6 °F 83% 29.89 in 5.0 mi West 9.2 mph - N/A   Scattered Clouds
1:48 PM 77.0 °F - 71.6 °F 83% 29.89 in 5.0 mi West 8.1 mph - N/A   Scattered Clouds
2:09 PM 77.0 °F - 69.8 °F 78% 29.89 in 7.0 mi West 8.1 mph - N/A   Clear
2:27 PM 77.0 °F - 69.8 °F 78% 29.89 in 10.0 mi West 6.9 mph - N/A   Clear
2:48 PM 75.2 °F - 69.8 °F 83% 29.88 in 7.0 mi West 5.8 mph - N/A   Scattered Clouds
3:09 PM 75.2 °F - 69.8 °F 83% 29.88 in 7.0 mi West 6.9 mph - N/A   Scattered Clouds
3:27 PM 73.4 °F - 69.8 °F 88% 29.88 in 5.0 mi West 5.8 mph - N/A   Scattered Clouds
3:48 PM 73.4 °F - 69.8 °F 88% 29.87 in 5.0 mi Calm Calm - N/A   Scattered Clouds
4:09 PM 73.4 °F - 71.6 °F 94% 29.86 in 7.0 mi SSW 3.5 mph - N/A   Scattered Clouds
4:27 PM 73.4 °F - 69.8 °F 88% 29.86 in 10.0 mi WSW 4.6 mph - N/A   Scattered Clouds
4:48 PM 75.2 °F - 69.8 °F 83% 29.86 in 10.0 mi Calm Calm - N/A   Mostly Cloudy
5:09 PM 75.2 °F - 69.8 °F 83% 29.86 in 10.0 mi Calm Calm - N/A   Overcast
5:27 PM 73.4 °F - 69.8 °F 88% 29.86 in 10.0 mi WSW 4.6 mph - N/A   Overcast
5:48 PM 73.4 °F - 71.6 °F 94% 29.86 in 7.0 mi WSW 3.5 mph - N/A   Overcast
6:09 PM 73.4 °F - 69.8 °F 88% 29.85 in 10.0 mi SW 3.5 mph - N/A   Overcast
6:27 PM 73.4 °F - 69.8 °F 88% 29.86 in 10.0 mi WSW 3.5 mph - N/A   Overcast
6:48 PM 73.4 °F - 69.8 °F 88% 29.85 in 7.0 mi WSW 3.5 mph - N/A   Overcast
7:09 PM 73.4 °F - 69.8 °F 88% 29.86 in 7.0 mi WSW 3.5 mph - N/A   Overcast
7:27 PM 71.6 °F - 69.8 °F 94% 29.86 in 4.0 mi Calm Calm - N/A   Overcast
7:48 PM 71.6 °F - 69.8 °F 94% 29.87 in 3.0 mi Calm Calm - N/A   Overcast
8:09 PM 71.6 °F - 69.8 °F 94% 29.87 in 2.5 mi Calm Calm - N/A   Overcast
8:27 PM 71.6 °F - 69.8 °F 94% 29.88 in 2.5 mi Calm Calm - N/A   Overcast
8:48 PM 71.6 °F - 69.8 °F 94% 29.88 in 2.5 mi Calm Calm - N/A   Overcast
9:09 PM 71.6 °F - 69.8 °F 94% 29.88 in 2.5 mi Calm Calm - N/A   Mostly Cloudy
9:30 PM 71.6 °F - 69.8 °F 94% 29.89 in 2.5 mi Calm Calm - N/A   Mostly Cloudy
9:48 PM 71.6 °F - 69.8 °F 94% 29.88 in 2.5 mi Calm Calm - N/A   Overcast
10:09 PM 71.6 °F - 69.8 °F 94% 29.88 in 2.5 mi Calm Calm - N/A   Overcast
10:30 PM 69.8 °F - 68.0 °F 94% 29.88 in 2.0 mi Calm Calm - N/A   Overcast
10:48 PM 69.8 °F - 68.0 °F 94% 29.87 in 2.0 mi West 3.5 mph - N/A   Clear
11:09 PM 69.8 °F - 68.0 °F 94% 29.86 in 2.0 mi Calm Calm - N/A   Clear
11:30 PM 69.8 °F - 68.0 °F 94% 29.86 in 2.0 mi Calm Calm - N/A   Clear
11:48 PM 68.0 °F - 66.2 °F 94% 29.87 in 1.8 mi ESE 3.5 mph - N/A   Unknown